AirNav   ProFlight Series 2 Aviation Headset
 
 1068 users online  

AL69 Vaughn Airport
Seminole, Alabama, USA

GOING TO SEMINOLE?


FAA INFORMATION EFFECTIVE 16 JULY 2020

Location

FAA Identifier: AL69
Lat/Long: 30-30-30.7030N 087-29-29.9310W
30-30.511717N 087-29.498850W
30.5085286,-87.4916475
(estimated)
Elevation: 30 ft. / 9 m (estimated)
Variation: 01E (1985)
From city: 1 mile SW of SEMINOLE, AL
Time zone: UTC -5 (UTC -6 during Standard Time)
Zip code: 36574

Airport Operations

Airport use: Private use. Permission required prior to landing
Control tower: no
ARTCC: JACKSONVILLE CENTER
FSS: ANNISTON FLIGHT SERVICE STATION
Attendance: UNATNDD
Wind indicator: yes
Segmented circle: no

Airport Communications

WX ASOS at PNS (16 nm E): PHONE 850-436-4799
WX AWOS-3PT at JKA (16 nm SW): 134.525 (251-968-7581)

Nearby radio navigation aids

VOR radial/distance  VOR name  Freq  Var
NUNr284/(8.3)SAUFLEY VOR108.8001E
BFMr098/29.8BROOKLEY VORTAC112.8004E

 
NDB name  Hdg/Dist  Freq  Var  ID
PICKENS287/16.832602WPKZ .--. -.- --..

Airport Services

Runway Information

Runway 18/36

Dimensions: 4000 x 70 ft. / 1219 x 21 m
Surface: turf
RUNWAY 18  RUNWAY 36
Traffic pattern: leftleft

Airport Ownership and Management from official FAA records

Ownership: Privately-owned
Owner: DORRIS E VAUGHN
19755 VAUGHN ROAD
SEMINOLE, AL 36574
Phone 251-979-0957
850-572-7386
Manager: JOHN VAUGHN
18871 VAUGHN ROAD
SEMINOLE, AL 36574
Phone 251-979-0957

Additional Remarks

FOR CD CTC PENSACOLA APCH AT 850-266-6884 OR 850-266-6885.

Instrument Procedures

There are no published instrument procedures at AL69.

Some nearby airports with instrument procedures:

5R4 - Foley Municipal Airport (12 nm SW)
KNPA - Pensacola Naval Air Station/Forrest Sherman Field (13 nm SE)
KPNS - Pensacola International Airport (16 nm E)
KJKA - Jack Edwards National Airport (16 nm SW)
KCQF - H L Sonny Callahan Airport (20 nm W)
 
Loc | Ops | Rwys | IFR | FBO | Links
Com | Nav | Svcs | Stats | Notes

Continental Services
AirBoss

 
Area around AL69 (Vaughn Airport)
 
Road maps at: MapQuest Bing Google
 
Aerial photo
No photo
 
Sectional chart

 
Airport distance calculator
Flying to Vaughn Airport? Find the distance to fly.

From to AL69

Sunrise and sunset
Times for 03-Aug-2020
 Local
(UTC-5)
 Zulu
(UTC)
Morning civil twilight05:4510:45
Sunrise06:1111:11
Sunset19:4100:41
Evening civil twilight20:0701:07

Current date and time
Zulu (UTC)  04-Aug-2020 00:51:56
Local (UTC-5)  03-Aug-2020 19:51:56
 
METAR
KNPA 
13nm SE 
032356Z 23005KT 10SM FEW050 SCT110 SCT250 31/24 A2988 RMK AO2 SLP121 T03060239 10339 20306 55002
KPNS 
16nm E 
032353Z AUTO 25007KT 10SM CLR 31/24 A2988 RMK AO2 SLP118 T03110239 10339 20311 55004
KJKA 
16nm SW 
040035Z AUTO 33009G18KT 10SM CLR 28/23 A2991 RMK AO2 T02840230
KCQF 
20nm W 
040035Z AUTO 02003KT 10SM SCT080 23/22 A2991 RMK AO2
TAF
KNPA 
13nm SE 
0323/0423 24008KT 9999 FEW050 SCT090 QNH2986INS FM040100 VRB05KT 9999 FEW050 QNH2987INS FM040900 33006KT 9999 FEW030 SCT250 QNH2986INS TEMPO 0415/0418 VRB06KT SCT035 FM041800 23010KT 9999 SCT040 SCT250 QNH2987INS AUTOMATED SENSOR METWATCH 0403 TIL 0411 T24/0411Z T33/0418Z FN20053
KPNS 
16nm E 
031723Z 0318/0418 VRB04KT P6SM SCT030 FM031900 25004KT P6SM FEW030 FM040200 27004KT P6SM FEW250
NOTAMs
Click for the latest NOTAMs
NOTAMs are issued by the DoD/FAA and will open in a separate window not controlled by AirNav.

 

 
 

Would you like to see your business listed on this page?

 If your business provides an interesting product or service to pilots, flight crews, aircraft, or users of the Vaughn Airport, you should consider listing it here.  To start the listing process, click on the button below
 
Add a business
 

Other Pages about Vaughn Airport

Update a link
 
Copyright © AirNav, LLC. All rights reserved. Privacy Policy  Contact